FW1564 Weather Reports


Display with metric or nautical units.
time (UTC)temp
F
wind
direction
speed
MPH
gust
MPH
rain 1hr
in
rain 24hr
in
rain mn
in
humidity
%
barometer
mb
20260831050139 64 341 3.0 4.0 0.00 0.00 0.00 88 1020.4
20260831045137 64 343 1.0 4.0 0.00 0.00 0.00 87 1020.4
20260831044137 64 340 3.0 4.0 0.00 0.00 0.00 87 1020.4
20260831043137 64 339 2.0 4.0 0.00 0.00 0.00 87 1020.4
20260831042138 64 346 2.0 4.0 0.00 0.00 0.00 86 1020.5
20260831040136 65 311 3.0 7.0 0.00 0.00 0.00 86 1020.5
20260831035130 65 344 3.0 6.0 0.00 0.00 0.00 86 1020.5
20260831034130 64 335 3.0 4.0 0.00 0.00 0.00 86 1020.6
20260831033606 65 340 2.0 4.0 0.00 0.00 0.00 86 1020.6
20260831032131 65 352 3.0 6.0 0.00 0.00 0.00 86 1020.6
20260831031130 65 354 2.0 6.0 0.00 0.00 0.00 86 1020.5
20260831030615 65 341 3.0 4.0 0.00 0.00 0.00 85 1020.9
20260831025129 65 342 2.0 4.0 0.00 0.00 0.00 85 1020.8
20260831024129 64 2 2.0 3.0 0.00 0.00 0.00 86 1020.7
20260831023129 66 340 2.0 4.0 0.00 0.00 0.00 84 1020.9
20260831022613 66 2 3.0 7.0 0.00 0.00 0.00 84 1021.1
20260831021129 65 339 2.0 4.0 0.00 0.00 0.00 86 1021.2
20260831020128 65 351 2.0 4.0 0.00 0.00 0.00 86 1021.6
20260831015128 65 339 3.0 4.0 0.00 0.00 0.00 86 1021.7
20260831014615 64 345 3.0 4.0 0.00 0.00 0.00 87 1021.6
20260831013122 65 353 3.0 4.0 0.00 0.00 0.00 86 1021.5
20260831012123 65 355 2.0 4.0 0.00 0.00 0.00 86 1021.5
20260831011125 65 338 3.0 6.0 0.00 0.00 0.00 86 1021.8
20260831010121 65 336 4.0 6.0 0.00 0.00 0.00 86 1021.9
20260831005122 65 343 4.0 6.0 0.00 0.00 0.00 86 1022.0
20260831004122 65 348 2.0 4.0 0.00 0.00 0.00 85 1021.9
20260831003122 65 342 2.0 4.0 0.00 0.00 0.00 85 1021.9
20260831002122 65 340 3.0 6.0 0.00 0.00 0.00 84 1021.9
20260831001124 65 349 2.0 4.0 0.00 0.00 0.00 84 1022.0
20260831000121 65 336 3.0 4.0 0.00 0.00 0.00 86 1022.0
20260830235121 65 341 2.0 4.0 0.00 0.00 0.00 85 1022.1
20260830234123 65 332 0.0 4.0 0.00 0.00 0.00 84 1021.8
20260830234036 65 332 4.0 6.0 0.00 0.00 0.00 86 1021.7
20260830232114 65 343 3.0 6.0 0.00 0.00 0.00 85 1022.0
20260830231114 65 341 4.0 4.0 0.00 0.00 0.00 85 1021.7
20260830230113 65 352 4.0 6.0 0.00 0.00 0.00 85 1021.7
20260830230036 65 342 2.0 4.0 0.00 0.00 0.00 86 1021.7
20260830224114 65 333 2.0 4.0 0.00 0.00 0.00 86 1022.0
20260830223112 65 359 2.0 3.0 0.00 0.00 0.00 86 1022.0
20260830222114 66 345 1.0 6.0 0.00 0.00 0.00 86 1021.8
20260830221547 66 346 2.0 3.0 0.00 0.00 0.00 87 1022.1
20260830220112 66 338 2.0 3.0 0.00 0.00 0.00 86 1021.8
20260830215112 66 341 2.0 6.0 0.00 0.00 0.00 86 1021.6
20260830214112 66 16 3.0 6.0 0.00 0.00 0.00 86 1021.9
20260830213600 65 339 3.0 4.0 0.00 0.00 0.00 86 1021.8
20260830212112 65 343 2.0 3.0 0.00 0.00 0.00 86 1021.7
20260830211112 66 6 1.0 7.0 0.00 0.00 0.00 86 1021.6
20260830210053 66 337 3.0 3.0 0.00 0.00 0.00 87 1021.3
20260830205532 66 335 2.0 4.0 0.00 0.00 0.00 87 1021.5
20260830204054 66 347 3.0 4.0 0.00 0.00 0.00 87 1021.3
20260830203054 67 348 2.0 2.0 0.00 0.00 0.00 86 1021.2
20260830202053 67 330 1.0 2.0 0.00 0.00 0.00 86 1021.0
20260830201531 67 148 0.0 1.0 0.00 0.00 0.00 84 1020.9
20260830200054 68 132 0.0 2.0 0.00 0.00 0.00 84 1020.9
20260830195108 68 129 2.0 2.0 0.00 0.00 0.00 84 1020.7
20260830194053 68 142 2.0 3.0 0.00 0.00 0.00 84 1020.7
20260830193531 68 137 3.0 3.0 0.00 0.00 0.00 83 1021.0
20260830192053 69 106 2.0 3.0 0.00 0.00 0.00 83 1020.7
20260830191053 69 118 1.0 4.0 0.00 0.00 0.00 82 1020.8
20260830190530 69 132 2.0 3.0 0.00 0.00 0.00 82 1020.8
20260830185053 69 153 2.0 4.0 0.00 0.00 0.00 81 1020.8
20260830184053 69 139 1.0 4.0 0.00 0.00 0.00 81 1021.0
20260830183047 70 130 1.0 4.0 0.00 0.00 0.00 80 1020.9
20260830182046 70 145 3.0 4.0 0.00 0.00 0.00 80 1020.6
20260830181046 70 156 2.0 6.0 0.00 0.00 0.00 80 1020.6
20260830180048 70 104 5.0 7.0 0.00 0.00 0.00 79 1020.7
20260830175046 70 147 1.0 6.0 0.00 0.00 0.00 79 1020.8
20260830174046 70 173 1.0 6.0 0.00 0.00 0.00 79 1020.7
20260830173035 71 120 2.0 7.0 0.00 0.00 0.00 78 1020.6
20260830172034 71 84 2.0 8.0 0.00 0.00 0.00 78 1020.5
20260830171034 71 103 6.0 8.0 0.00 0.00 0.00 77 1020.4
20260830170035 72 155 4.0 8.0 0.00 0.00 0.00 76 1020.7
20260830165035 72 217 4.0 8.0 0.00 0.00 0.00 75 1020.6
20260830164514 74 142 3.0 9.0 0.00 0.00 0.00 72 1020.5
20260830163034 74 154 7.0 8.0 0.00 0.00 0.00 72 1020.5
20260830162037 74 102 6.0 8.0 0.00 0.00 0.00 70 1020.6
20260830161018 74 210 2.0 9.0 0.00 0.00 0.00 71 1020.3
20260830160019 75 186 1.0 9.0 0.00 0.00 0.00 70 1020.5
20260830155025 75 125 4.0 8.0 0.00 0.00 0.00 70 1020.5
20260830154024 75 143 5.0 8.0 0.00 0.00 0.00 67 1020.7
20260830153019 75 130 2.0 7.0 0.00 0.00 0.00 69 1020.6
20260830152018 74 137 3.0 9.0 0.00 0.00 0.00 70 1020.8
20260830151029 75 131 5.0 9.0 0.00 0.00 0.00 68 1020.8
20260830150019 75 98 5.0 8.0 0.00 0.00 0.00 68 1021.1
20260830145017 75 201 5.0 8.0 0.00 0.00 0.00 69 1021.0
20260830144022 75 183 7.0 10.0 0.00 0.00 0.00 68 1021.1
20260830143507 75 127 6.0 9.0 0.00 0.00 0.00 68 1021.2
20260830142023 74 133 4.0 10.0 0.00 0.00 0.00 69 1021.0
20260830141023 75 112 4.0 10.0 0.00 0.00 0.00 69 1021.2
20260830140028 74 130 7.0 10.0 0.00 0.00 0.00 69 1021.5
20260830135026 74 139 1.0 9.0 0.00 0.00 0.00 70 1021.2
20260830134450 74 141 5.0 10.0 0.00 0.00 0.00 69 1021.1
20260830133008 74 61 2.0 10.0 0.00 0.00 0.00 69 1021.1
20260830132009 74 135 5.0 10.0 0.00 0.00 0.00 69 1021.1
20260830131008 74 116 4.0 11.0 0.00 0.00 0.00 70 1021.3
20260830130455 74 149 4.0 10.0 0.00 0.00 0.00 70 1021.2
20260830125009 74 187 3.0 9.0 0.00 0.00 0.00 70 1021.5
20260830124008 74 157 4.0 9.0 0.00 0.00 0.00 71 1021.5
20260830123008 73 146 8.0 9.0 0.00 0.00 0.00 70 1021.6
20260830122450 73 134 5.0 10.0 0.00 0.00 0.00 71 1021.6
20260830121008 73 99 5.0 9.0 0.00 0.00 0.00 72 1021.8
20260830120022 71 244 3.0 8.0 0.00 0.00 0.00 75 1022.1
20260830115010 72 106 3.0 9.0 0.00 0.00 0.00 75 1022.0
20260830114009 71 138 2.0 9.0 0.00 0.00 0.00 76 1021.8
20260830113009 72 142 5.0 8.0 0.00 0.00 0.00 74 1022.1
20260830112002 72 98 4.0 10.0 0.00 0.00 0.00 72 1022.1
20260830111003 73 121 5.0 11.0 0.00 0.00 0.00 71 1021.7
20260830110442 73 57 1.0 10.0 0.00 0.00 0.00 72 1021.9
20260830105548 72 160 4.0 8.0 0.00 0.00 0.00 73 1021.9
20260830105425 72 160 3.0 8.0 0.00 0.00 0.00 73 1021.9
20260830103002 71 106 2.0 9.0 0.00 0.00 0.00 74 1021.8
20260830102001 72 225 6.0 8.0 0.00 0.00 0.00 73 1021.8
20260830101001 73 191 5.0 9.0 0.00 0.00 0.00 71 1021.6
20260830100000 72 128 5.0 8.0 0.00 0.00 0.00 72 1021.6
20260830095001 72 106 2.0 7.0 0.00 0.00 0.00 73 1021.2
20260830094001 72 120 3.0 7.0 0.00 0.00 0.00 72 1021.1
20260830093001 71 314 1.0 7.0 0.00 0.00 0.00 75 1021.2
20260830092001 71 124 3.0 7.0 0.00 0.00 0.00 76 1021.2
20260830091001 69 124 2.0 6.0 0.00 0.00 0.00 79 1021.1
20260830090001 69 101 2.0 6.0 0.00 0.00 0.00 78 1021.2
20260830085001 69 116 2.0 3.0 0.00 0.00 0.00 77 1021.2
20260830084000 66 48 2.0 2.0 0.00 0.00 0.00 80 1021.3
20260830083000 64 359 0.0 4.0 0.00 0.00 0.00 81 1021.1
20260830081959 64 25 2.0 4.0 0.00 0.00 0.00 78 1021.1
20260830081000 64 9 4.0 6.0 0.00 0.00 0.00 78 1021.0
20260830080000 64 21 4.0 6.0 0.00 0.00 0.00 79 1020.7
20260830075000 64 354 4.0 7.0 0.00 0.00 0.00 81 1020.8
20260830074000 63 340 3.0 4.0 0.00 0.00 0.00 82 1020.8
20260830073000 63 347 4.0 7.0 0.00 0.00 0.00 82 1020.8
20260830072000 63 351 4.0 7.0 0.00 0.00 0.00 82 1020.4
20260830071000 63 335 5.0 8.0 0.00 0.00 0.00 82 1020.4
20260830070000 63 339 6.0 7.0 0.00 0.00 0.00 83 1020.4
20260830065000 63 0 4.0 7.0 0.00 0.00 0.00 82 1020.2
20260830064000 63 350 5.0 7.0 0.00 0.00 0.00 82 1020.4
20260830063437 62 350 3.0 7.0 0.00 0.00 0.00 81 1020.2
20260830062439 63 340 4.0 7.0 0.00 0.00 0.00 81 1020.2
20260830060953 63 319 4.0 7.0 0.00 0.00 0.00 82 1020.1
20260830060445 63 358 4.0 8.0 0.00 0.00 0.00 82 1020.0
20260830055905 63 355 4.0 6.0 0.00 0.00 0.00 82 1019.9
20260830053953 63 21 3.0 6.0 0.00 0.00 0.00 82 1020.2
20260830052953 63 329 4.0 6.0 0.00 0.00 0.00 82 1020.1
20260830051953 63 3 4.0 7.0 0.00 0.00 0.00 82 1020.0